Weather History for PHHI - February, 2014

Change the Weather History Date:

Thursday, February 27, 2014

  Actual Average Record
Temperature  
Mean Temperature 66 °F -  
Max Temperature 77 °F 74 °F 78 °F (1998)
Min Temperature 55 °F 61 °F 55 °F (2014)
Cooling Degree Days 1    
Growing Degree Days 16 (Base 50)    
Moisture  
Dew Point 56 °F    
Average Humidity 69    
Maximum Humidity 82    
Minimum Humidity 51    
Precipitation  
Precipitation 0.00 in - - ()
Sea Level Pressure  
Sea Level Pressure 29.98 in    
Wind  
Wind Speed 5 mph (ESE)    
Max Wind Speed 13 mph    
Max Gust Speed -    
Visibility 10 miles    
Events      
Averages and records for this station are not official NWS values.
T = Trace of Precipitation, MM = Missing Value Source: NWS Daily Summary

Daily Weather History Graph

Daily Weather History Graph

Search for Another Location

Airport or City:

Trip Planner

Search our weather history database for the weather conditions in past years. The results will help you decide how hot, cold, wet, or windy it might be!

Date:

Astronomy

Feb. 27, 2014 Rise Set
Actual Time 6:54 AM HST 6:35 PM HST
Civil Twilight 6:31 AM HST 6:58 PM HST
Nautical Twilight 6:05 AM HST 7:24 PM HST
Astronomical Twilight 5:40 AM HST 7:49 PM HST
Moon 5:27 AM HST (2/27) 5:19 PM HST (2/27)
Length of Visible Light 12h 26m
Length of Day
11h 41m
Waning Crescent, 3% of the Moon is Illuminated
Feb 27
Waning Crescent
Feb 28
New
Mar 8
First Quarter
Mar 16
Full
Mar 23
Last Quarter

Hourly Weather History & Observations

Time (HST) Temp. Dew Point Humidity Pressure Visibility Wind Dir Wind Speed Gust Speed Precip Events Conditions
12:58 AM 61.7 °F 51.8 °F 70% 30.01 in 10.0 mi NW 4.6 mph - N/A   Mostly Cloudy
1:58 AM 57.4 °F 51.4 °F 81% 30.00 in 10.0 mi NW 5.8 mph - N/A   Mostly Cloudy
2:58 AM 60.4 °F 51.4 °F 72% 29.99 in 10.0 mi North 5.8 mph - N/A   Partly Cloudy
3:58 AM 57.9 °F 50.9 °F 77% 29.97 in 10.0 mi NW 5.8 mph - N/A   Clear
4:58 AM 55.9 °F 50.5 °F 82% 29.99 in 10.0 mi WNW 8.1 mph - N/A   Clear
5:58 AM 57.6 °F 51.4 °F 80% 29.99 in 10.0 mi WNW 6.9 mph - N/A   Clear
6:58 AM 57.4 °F 51.1 °F 79% 30.01 in 10.0 mi NW 4.6 mph - N/A   Partly Cloudy
7:58 AM 62.6 °F 54.1 °F 74% 30.01 in 10.0 mi Variable 2.3 mph - N/A   Partly Cloudy
8:58 AM 67.8 °F 54.9 °F 63% 30.02 in 10.0 mi Variable 4.6 mph - N/A   Clear
9:58 AM 69.4 °F 55.0 °F 60% 30.04 in 10.0 mi East 9.2 mph - N/A   Mostly Cloudy
10:58 AM 72.1 °F 55.0 °F 55% 30.03 in 10.0 mi ESE 8.1 mph - 0.00 in   Clear
11:58 AM 73.2 °F 55.9 °F 55% 30.00 in 10.0 mi East 12.7 mph - N/A   Partly Cloudy
12:58 PM 73.8 °F 56.8 °F 55% 29.97 in 10.0 mi Variable 4.6 mph - N/A   Clear
1:58 PM 76.1 °F 57.7 °F 53% 29.95 in 10.0 mi SE 8.1 mph - N/A   Scattered Clouds
2:58 PM 77.2 °F 57.7 °F 51% 29.92 in 10.0 mi South 8.1 mph - N/A   Scattered Clouds
3:58 PM 75.0 °F 57.9 °F 55% 29.93 in 10.0 mi Variable 6.9 mph - N/A   Overcast
4:58 PM 73.2 °F 56.5 °F 56% 29.93 in 10.0 mi South 5.8 mph - N/A   Overcast
5:58 PM 71.8 °F 58.5 °F 63% 29.94 in 10.0 mi Variable 3.5 mph - N/A   Overcast
6:58 PM 70.2 °F 59.0 °F 68% 29.95 in 10.0 mi South 4.6 mph - N/A   Overcast
7:58 PM 69.1 °F 59.9 °F 72% 29.97 in 10.0 mi SE 2.3 mph - N/A   Overcast
8:03 PM 69.8 °F 59.0 °F 68% 29.98 in 10.0 mi SSE 3.5 mph - N/A   Light Drizzle
8:12 PM 68.0 °F 60.8 °F 78% 29.98 in 10.0 mi South 3.5 mph - N/A   Overcast
8:58 PM 67.6 °F 60.3 °F 77% 29.96 in 10.0 mi Variable 2.3 mph - 0.00 in   Mostly Cloudy
9:58 PM 65.7 °F 59.2 °F 80% 29.97 in 10.0 mi Calm Calm - N/A   Clear
10:53 PM 68.0 °F 60.8 °F 78% 29.99 in 10.0 mi ENE 3.5 mph - N/A   Mostly Cloudy
10:58 PM 67.3 °F 59.9 °F 77% 29.97 in 10.0 mi ENE 3.5 mph - N/A   Overcast
11:58 PM 67.3 °F 60.3 °F 78% 29.96 in 10.0 mi East 3.5 mph - N/A   Overcast